925  
ASUS45 KBOU 151310  
RWRCO  
 
WEATHER ROUNDUP FOR COLORADO  
NATIONAL WEATHER SERVICE DENVER/BOULDER CO  
700 AM MDT WED AUG 15 2018  
 
NOTE: "FAIR" INDICATES FEW OR NO CLOUDS BELOW 12000 FEET WITH NO  
SIGNIFICANT WEATHER AND/OR S TO VISIBILITY
.  
 
COZ001>005-013-030-031-151400-   
..NORTHWEST COLORADO
 
 
 
CITY SKY/WX TMP DP RH WIND PRES REMARKS
 
CRAIG FAIR 45 40 82 CALM 30.21R  
HAYDEN FAIR 51 39 63 SE7 30.23R  
MEEKER CLOUDY 48 38 68 CALM 30.22R HAZE  
RANGELY NOT AVBL  
RABBIT EARS PA FAIR 48 32 53 W7 30.46S  
STEAMBOAT SPGS FAIR 46 39 75 CALM 30.24R  
WALDEN FAIR 43 32 65 SE8 30.31R  

 
 
COZ006>008-011-151400-   
..WEST CENTRAL VALLEYS
 
 
 
CITY SKY/WX TMP DP RH WIND PRES REMARKS
 
GRAND JUNCTION FAIR 69 44 40 S7 30.06R  
MONTROSE FAIR 62 42 47 S7 30.17R  
EAGLE FAIR 50 38 63 E3 30.27R  
RIFLE FAIR 57 38 48 CALM 30.16R  
DELTA FAIR 67 40 37 E9 30.12R  
NUCLA FAIR 64 36 34 E8 N/A  

 
 
COZ017>023-064>068-151400-   
..SOUTHWEST COLORADO
 
 
 
CITY SKY/WX TMP DP RH WIND PRES REMARKS
 
DURANGO FAIR 54 42 64 NE3 30.22R  
CORTEZ FAIR 59 41 51 E8 30.16R HAZE  
PAGOSA SPRINGS FAIR 50 37 61 CALM 30.31R  
TELLURIDE FAIR 54 37 54 SE5 30.41R  
WOLF CREEK PAS FAIR 46 34 61 SW8 30.64R  

 
 
COZ009-010-012-014-032>034-037-058>063-151400-   
..CENTRAL COLORADO
 
 
 
CITY SKY/WX TMP DP RH WIND PRES REMARKS
 
ASPEN FAIR 50 37 61 S5 30.30R  
BUENA VISTA CLOUDY 53 44 70 W3 30.35R  
COPPER MTN FAIR 50 34 53 W10 30.59R  
BERTHOUD PASS FAIR 41 28 60 NW24G32 30.58S  
COTTONWOOD PAS MOCLDY 54 50 87 CALM 30.45R  
GUNNISON FAIR 47 41 80 SW3 30.32R  
GRANBY FAIR 41 37 86 CALM 30.34R  
KREMMLING FAIR 41 36 81 CALM 30.30R  
LEADVILLE FAIR 43 41 93 E3 30.45R  
MONARCH PASS FAIR 46 36 66 MISG 30.69R  
SALIDA FAIR 53 48 83 W7 30.39R  
SUNLIGHT CLOUDY 52 32 46 NW3 30.53S  
WILKERSON PASS FAIR 46 43 87 NW5 30.56R  

 
 
COZ069>075-151400-   
..SAN LUIS VALLEY/SANGRE DE CRISTO MOUNTAINS
 
 
 
CITY SKY/WX TMP DP RH WIND PRES REMARKS
 
ALAMOSA FAIR 48 44 86 S3 30.30R  
DEL NORTE FAIR 55 38 54 W8 30.33R  
LA VETA PASS NOT AVBL  
SAGUACHE FAIR 52 41 66 NW9 30.33R  

 
 
COZ035-036-038>040-151400-   
..NORTHERN COLORADO FRONT RANGE
 
 
 
CITY SKY/WX TMP DP RH WIND PRES REMARKS
 
DENVER INTL AP FAIR 65 52 62 W12 30.06R  
AURORA PTCLDY 64 53 68 S12 30.08R  
FRONT RANGE AP PTCLDY 66 54 63 SW15 30.07  
ERIE MUNI ARPT FAIR 56 55 95 CALM 30.11R  
BOULDER MUN AP FAIR 59 55 88 CALM 30.06R  
CENTENNIAL FAIR 67 51 56 SW13 30.10R  
BROOMFIELD MOCLDY 64 54 68 N5 30.09R  
FORT COLLINS FAIR 57 56 96 N7 30.06R FOG  
LONGMONT FAIR 59 56 89 CALM 30.07R FOG  

 
 
COZ041-046-047-076>085-087-088-151400-   
..PIKES PEAK/PALMER DIVIDE AND SOUTHERN FOOTHILLS
 
 
 
CITY SKY/WX TMP DP RH WIND PRES REMARKS
 
COLO. SPRINGS FAIR 58 54 86 NE7 30.17R  
A. F. ACADEMY PTCLDY 53 53 99 N8 30.17F  
SCHRIEVER AFB NOT AVBL  
CHEYENNE MTN FAIR 64 47 52 CALM 30.15R  
ELLICOTT N/A N/A N/A N/A SW6 30.15S  
FALCON FAIR 57 54 89 NW3 30.22R  
FORT CARSON NOT AVBL  
LIMON FAIR 57 55 93 SE9 30.11R  
MONUMENT HILL FAIR 55 50 82 SW14 30.21S  
CANON CITY CLEAR 64 55 72 W12G18 30.13R  
WALSENBURG NOT AVBL  
TRINIDAD FAIR 62 57 83 VRB5 30.15S  

 
 
COZ042>045-048>051-090-091-151400-   
..NORTHEAST COLORADO
 
 
 
CITY SKY/WX TMP DP RH WIND PRES REMARKS
 
GREELEY ARPT FAIR 57 56 96 N8 30.05R  
AKRON FAIR 63 56 78 S15 30.06R  
BURLINGTON FAIR 60 56 86 S8 30.09S  
WRAY FAIR 61 55 82 CALM 30.05S  
YUMA FAIR 55 43 62 SE5 30.06R  
STERLING FAIR 59 55 88 S5 30.01S  
HOLYOKE FAIR 61 55 82 S5 30.04F  
FORT MORGAN FAIR 58 55 89 NE3 30.05R  

 
 
COZ086-089-092>099-151400-   
..SOUTHEAST COLORADO
 
 
 
CITY SKY/WX TMP DP RH WIND PRES REMARKS
 
PUEBLO FAIR 62 57 83 CALM 30.08S  
LA JUNTA FAIR 62 58 86 SE5 30.09R  
LAMAR FAIR 59 56 89 NE6 30.06R  
SPRINGFIELD N/A 59 58 96 S7 30.13R  

 
 
 
CLICK HERE TO GO TO PREVIOUS BULLETINS.

The Nexlab CO Page Main Text Page